This demonstration page uses our WeatherBlox Daily Observations layout. Learn more.

Left ArrowRight Arrow

40.92945, -100.16068

Hourly Observations for June 29, 2020

Temp ( °F °C ) Dew Point ( °F °C ) Humidity (%) Winds ( mph kmh ) Pressure ( in mb ) Visibility ( mi km ) Precip ( " mm )
12:15 am 00:15 Clear 77 25.1 69 20.3 75 75 SSE 9 15 29.46 998 7 11.26538 0 0
12:35 am 00:35 Clear 78 25.3 69 20.5 75 75 SSE 12 19 29.46 998 7 11.26538 0 0
12:55 am 00:55 Clear 77 25.2 69 20.5 75 75 SSE 12 19 29.46 998 7 11.26538 0 0
1:15 am 01:15 Clear 77 25.2 69 20.5 75 75 SSE 12 19 29.46 998 7 11.26538 0 0
1:35 am 01:35 Clear 77 25 69 20.6 77 77 SSE 13 20 29.46 998 7 11.26538 0 0
1:55 am 01:55 Clear 76 24.6 69 20.7 79 79 SSE 12 19 29.46 997 7 11.26538 0 0
2:15 am 02:15 Clear 76 24.5 70 20.9 80 80 SSE 14 22 29.45 997 7 11.26538 0 0
2:35 am 02:35 Clear 76 24.5 70 21 81 81 SSE 12 19 29.45 997 7 11.26538 0 0
2:55 am 02:55 Clear 76 24.2 70 21.1 83 83 SSE 13 20 29.45 997 7 11.26538 0 0
3:15 am 03:15 Clear 75 24 70 21.2 84 84 SSE 13 20 29.45 997 7 11.26538 0 0
3:35 am 03:35 Clear 75 23.8 70 21.2 85 85 SSE 15 24 29.45 997 10 16.0934 0 0
3:55 am 03:55 Clear 74 23.6 70 21.2 86 86 SSE 12 19 29.45 997 7 11.26538 0 0
4:15 am 04:15 Clear 74 23.3 70 21.2 88 88 SSE 14 22 29.46 997 7 11.26538 0 0
4:35 am 04:35 Partly Cloudy 74 23.1 70 21.3 90 90 SE 13 20 29.46 998 7 11.26538 0 0
4:55 am 04:55 Cloudy 74 23.2 70 21.3 89 89 SSE 13 20 29.46 998 7 11.26538 0 0
5:15 am 05:15 Cloudy 74 23.2 71 21.5 90 90 SSE 14 22 29.46 998 7 11.26538 0 0
5:35 am 05:35 Cloudy 74 23.5 71 21.5 89 89 SSE 14 22 29.47 998 7 11.26538 0 0
5:55 am 05:55 Cloudy 74 23.5 71 21.5 89 89 SSE 13 20 29.46 998 10 16.0934 0 0
6:15 am 06:15 Cloudy 74 23.3 71 21.4 89 89 SSE 15 24 29.46 997 7 11.26538 0 0
6:35 am 06:35 Cloudy 74 23.2 70 21.3 89 89 SSE 12 19 29.47 998 7 11.26538 0 0
6:55 am 06:55 Cloudy 74 23.5 70 21.3 88 88 SSE 13 20 29.47 998 7 11.26538 0 0
7:15 am 07:15 Cloudy 74 23.6 70 21.2 86 86 SSE 15 24 29.48 998 7 11.26538 0 0
7:35 am 07:35 Cloudy 75 24 70 21.1 84 84 SSE 15 24 29.48 998 10 16.0934 0 0
7:55 am 07:55 Cloudy 75 24.1 70 21 83 83 SSE 16 26 29.49 999 10 16.0934 0 0
8:15 am 08:15 Cloudy 76 24.5 69 20.8 80 80 S 14 22 29.49 998 10 16.0934 0 0
8:35 am 08:35 Cloudy 76 24.5 69 20.6 79 79 SSE 14 22 29.49 998 10 16.0934 0 0
8:55 am 08:55 Cloudy 76 24.7 69 20.3 77 77 SSE 15 24 29.49 999 10 16.0934 0 0
9:15 am 09:15 Cloudy 77 25.1 69 20.3 75 75 SSE 17 28 29.49 999 10 16.0934 0 0
9:35 am 09:35 Cloudy 79 26 68 20.2 70 70 SSE 18 30 29.48 998 10 16.0934 0 0
9:55 am 09:55 Cloudy 79 26 68 20.1 70 70 SSE 17 28 29.48 998 10 16.0934 0 0
10:15 am 10:15 Cloudy 80 26.5 68 20 68 68 SSE 17 28 29.48 998 10 16.0934 0 0
10:35 am 10:35 Cloudy 80 26.5 68 19.9 67 67 SE 16 26 29.48 998 10 16.0934 0 0
10:55 am 10:55 Cloudy 80 26.5 68 20 68 68 SSE 16 26 29.48 998 10 16.0934 0 0
11:15 am 11:15 Cloudy 82 27.8 69 20.3 64 64 SSE 15 24 29.47 998 10 16.0934 0 0
11:35 am 11:35 Cloudy 83 28.3 69 20.3 62 62 SSE 18 30 29.46 998 10 16.0934 0 0
11:55 am 11:55 Cloudy 83 28.2 68 20.2 62 62 SE 14 22 29.47 998 10 16.0934 0 0
12:15 pm 12:15 Cloudy 84 28.9 69 20.3 60 60 SE 16 26 29.46 998 10 16.0934 0 0
12:35 pm 12:35 Cloudy 84 28.9 69 20.4 60 60 SE 14 22 29.46 998 10 16.0934 0 0
12:55 pm 12:55 Mostly Cloudy 85 29.5 69 20.3 58 58 SSE 17 28 29.46 997 10 16.0934 0 0
1:15 pm 13:15 Mostly Cloudy 88 30.9 70 20.9 55 55 SE 15 24 29.44 997 10 16.0934 0 0
1:35 pm 13:35 Mostly Cloudy 88 31.1 70 21 55 55 SE 16 26 29.43 997 10 16.0934 0 0
1:55 pm 13:55 Partly Cloudy 89 31.7 70 21 53 53 SE 17 28 29.43 997 10 16.0934 0 0
2:15 pm 14:15 Sunny 89 31.9 70 21.1 53 53 SSE 21 33 29.42 996 10 16.0934 0 0
2:35 pm 14:35 Sunny 91 32.5 70 20.9 50 50 SE 21 33 29.41 996 10 16.0934 0 0
2:55 pm 14:55 Sunny 92 33.2 70 21.1 49 49 SSE 18 30 29.41 996 10 16.0934 0 0
3:15 pm 15:15 Partly Cloudy 92 33.1 70 21.1 49 49 SSE 18 30 29.41 996 10 16.0934 0 0
3:35 pm 15:35 Sunny 93 33.9 70 21.1 47 47 SE 23 37 29.41 996 10 16.0934 0 0
3:55 pm 15:55 Sunny 94 34.3 70 21.2 46 46 SSE 23 37 29.4 996 10 16.0934 0 0
4:15 pm 16:15 Sunny 94 34.4 71 21.4 47 47 SSE 20 31 29.4 995 10 16.0934 0 0
4:35 pm 16:35 Sunny 94 34.3 71 21.4 47 47 SSE 20 31 29.4 996 10 16.0934 0 0
4:55 pm 16:55 Sunny 95 35 71 21.5 45 45 SSE 17 28 29.39 995 10 16.0934 0 0
5:15 pm 17:15 Sunny 94 34.6 71 21.5 46 46 SE 20 31 29.4 995 10 16.0934 0 0
5:35 pm 17:35 Sunny 94 34.4 71 21.8 48 48 SE 21 33 29.4 995 10 16.0934 0 0
5:55 pm 17:55 Sunny 93 34.1 71 21.8 49 49 SSE 18 30 29.4 996 10 16.0934 0 0
6:15 pm 18:15 Sunny 93 33.9 71 21.9 49 49 SSE 20 31 29.39 995 10 16.0934 0 0
6:35 pm 18:35 Sunny 93 33.7 71 21.9 50 50 SE 21 33 29.39 995 10 16.0934 0 0
6:55 pm 18:55 Sunny 92 33.4 72 22 51 51 SE 17 28 29.39 995 10 16.0934 0 0
7:15 pm 19:15 Sunny 91 33 71 21.9 52 52 SE 15 24 29.4 996 10 16.0934 0 0
7:35 pm 19:35 Sunny 91 32.5 73 22.5 56 56 SE 14 22 29.4 996 10 16.0934 0 0
7:55 pm 19:55 Sunny 90 32.3 73 22.7 57 57 SE 14 22 29.4 996 10 16.0934 0 0
8:15 pm 20:15 Sunny 89 31.9 73 22.6 58 58 SE 13 20 29.41 996 10 16.0934 0 0
8:35 pm 20:35 Sunny 88 31.2 73 22.5 60 60 SE 14 22 29.41 996 10 16.0934 0 0
8:55 pm 20:55 Sunny 87 30.5 73 22.5 62 62 SE 13 20 29.42 996 10 16.0934 0 0
9:15 pm 21:15 Clear 85 29.6 73 22.5 66 66 SE 12 19 29.43 997 10 16.0934 0 0
9:35 pm 21:35 Clear 84 28.8 73 22.5 69 69 SE 12 19 29.44 997 10 16.0934 0 0
9:55 pm 21:55 Clear 83 28.6 72 22 68 68 SE 12 19 29.44 997 10 16.0934 0 0
10:15 pm 22:15 Clear 83 28.2 71 21.5 67 67 SE 12 19 29.46 997 10 16.0934 0 0
10:35 pm 22:35 Clear 82 27.9 70 21.3 67 67 SE 12 19 29.47 998 10 16.0934 0 0
10:55 pm 22:55 Clear 81 27.3 71 21.4 70 70 SE 12 19 29.47 998 10 16.0934 0 0
11:15 pm 23:15 Clear 81 27 71 21.7 73 73 SE 12 19 29.48 998 10 16.0934 0 0
11:35 pm 23:35 Clear 80 26.9 72 22 75 75 SSE 14 22 29.48 998 10 16.0934 0 0
11:55 pm 23:55 Clear 80 26.8 72 22.3 76 76 SSE 14 22 29.48 998 10 16.0934 0 0

Powered by AerisWeather